Date,TemperatureHighF,TemperatureAvgF,TemperatureLowF,DewpointHighF,DewpointAvgF,DewpointLowF,HumidityHigh,HumidityAvg,HumidityLow,PressureMaxIn,PressureMinIn,WindSpeedMaxMPH,WindSpeedAvgMPH,GustSpeedMaxMPH,PrecipitationSumIn
2013-10-1,61.0,52.5,43.9,43.8,40.9,37.6,81,65,51,29.94,29.78,8,1,12,0.00
2013-10-2,54.4,48.9,36.0,40.0,34.7,27.9,76,59,38,30.33,29.94,10,2,16,0.00
2013-10-3,52.6,41.5,31.2,30.7,27.5,24.4,87,60,37,30.51,30.33,9,2,15,0.00
2013-10-4,52.8,38.4,25.1,31.9,26.5,22.0,91,66,37,30.52,30.42,6,1,9,0.00
2013-10-5,56.9,40.6,25.2,32.1,28.3,22.3,92,65,35,30.43,30.23,8,1,13,0.00
2013-10-6,62.2,46.4,32.9,38.4,34.3,29.2,89,66,36,30.30,30.23,4,0,9,0.00
2013-10-7,65.3,52.8,43.0,43.9,41.3,38.4,86,67,40,30.36,30.29,5,0,8,0.00
2013-10-8,67.5,51.0,36.7,45.6,39.1,34.3,94,68,34,30.35,30.24,7,1,10,0.00
2013-10-9,60.8,52.2,42.0,48.1,43.7,37.5,86,73,57,30.24,30.01,6,1,10,0.00
2013-10-10,56.3,53.5,51.5,52.8,50.7,47.5,94,90,82,30.01,29.88,8,1,15,0.03
2013-10-11,70.5,60.9,53.1,57.5,54.5,51.7,96,81,62,30.06,29.92,11,5,23,0.00
2013-10-12,73.5,62.3,53.0,59.8,56.2,51.0,95,82,60,30.13,30.04,11,1,16,0.09
2013-10-13,69.5,58.9,46.1,61.0,53.6,43.3,97,84,57,30.17,30.06,8,1,12,0.12
2013-10-14,65.0,52.1,40.4,54.4,47.0,38.8,96,84,65,30.18,30.07,6,0,8,0.00
2013-10-15,66.2,54.9,43.7,58.0,50.6,41.5,96,86,65,30.07,29.79,9,1,14,0.01
2013-10-16,50.1,47.7,42.2,48.6,46.2,40.3,95,94,92,29.78,29.59,11,3,20,0.47
2013-10-17,60.4,51.9,43.8,50.1,46.1,41.1,94,81,55,29.95,29.75,12,3,23,0.00
2013-10-18,59.5,51.7,43.6,48.8,45.5,40.1,95,80,62,30.10,29.91,13,3,22,0.06
2013-10-19,56.0,47.9,35.8,45.5,40.9,33.5,95,78,62,30.28,30.11,9,2,14,0.00
2013-10-20,64.5,54.8,42.1,53.9,47.0,39.4,92,76,59,30.25,30.09,9,1,16,0.00
2013-10-21,69.8,56.8,49.1,57.0,51.4,47.2,95,83,61,30.13,30.06,7,0,12,0.00
2013-10-22,64.4,56.2,45.7,58.5,52.8,44.4,97,89,80,30.14,30.08,6,1,12,0.00
2013-10-23,74.4,66.0,60.2,59.2,56.9,54.6,89,74,53,30.08,29.96,15,4,22,0.00
2013-10-24,72.3,62.3,52.7,58.5,55.2,50.1,94,78,60,30.15,30.03,6,1,8,0.00
2013-10-25,73.2,59.8,47.8,59.5,53.6,46.2,96,81,60,30.17,30.09,6,0,9,0.00
2013-10-26,71.0,57.3,47.4,58.3,52.0,45.8,96,83,62,30.12,30.08,7,1,12,0.00
2013-10-27,71.4,56.7,43.4,59.3,51.7,41.8,96,84,63,30.11,29.90,9,1,15,0.00
2013-10-28,69.5,62.4,53.5,60.0,55.3,50.0,92,78,61,30.02,29.88,8,2,14,0.00
2013-10-29,69.3,59.2,49.5,58.4,53.0,47.3,95,80,66,30.05,29.87,8,1,12,0.05
2013-10-30,60.0,52.9,44.4,52.0,46.7,39.6,95,80,60,30.29,30.03,9,2,15,0.07
2013-10-31,59.9,47.4,37.8,45.0,39.6,35.2,93,76,49,30.37,30.28,4,0,7,0.00